MSC Lirica — HOPW — position and weather

sailwx.info

Track history (hours):
 
Tides and Currents Weather Stations Pressure Air Temp Water Temp Dewpoint Dewpoint Depression Visibility Wind Speed Wind Dir Waves Ship Positions

MSC Lirica

Operator: Mediterranean Shipping Company

Last reported at 2019-Oct-18 23:52 UTC. Time now 2019-Oct-19 00:36 UTC.
Position N 43°44' E 014°05'.

Length 275 m; draft 6.8 m.

Type: Passenger vessel. MMSI: 356042000.

Date/timePositionNaut miles runAvg speedWind from/ knotsBaromVisibWave heightAir tempDewpointWater temp
2019-Oct-18 23:52N 43°44' E 014°05'1217.3
2019-Oct-18 23:11N 43°51' E 013°51'417.1
2019-Oct-18 22:55N 43°54' E 013°47'717.1
2019-Oct-18 22:30N 43°58' E 013°39'917.3
2019-Oct-18 22:00N 44°03' E 013°29'1017.2
2019-Oct-18 21:24N 44°09' E 013°17'616.7
2019-Oct-18 21:01N 44°14' E 013°12'917.4
2019-Oct-18 20:30N 44°23' E 013°08'816.9
2019-Oct-18 20:00N 44°31' E 013°04'917.0
2019-Oct-18 19:30N 44°39' E 013°00'917.2
2019-Oct-18 19:00N 44°47' E 012°56'917.1
2019-Oct-18 18:30N 44°54' E 012°50'917.1
2019-Oct-18 18:00N 45°02' E 012°45'816.5
2019-Oct-18 17:30N 45°08' E 012°38'816.2
2019-Oct-18 17:01N 45°14' E 012°30'816.4
2019-Oct-18 16:31N 45°22' E 012°30'611.4
2019-Oct-18 16:00N 45°26' E 012°24'2 4.6
2019-Oct-18 15:30N 45°26' E 012°20'1 2.5
2019-Oct-18 15:00N 45°26' E 012°19'0 0.0
2019-Oct-18 14:30N 45°26' E 012°19'0 0.0
2019-Oct-18 14:00N 45°26' E 012°19'0 0.0
2019-Oct-18 13:30N 45°26' E 012°19'0 0.0
2019-Oct-18 13:00N 45°26' E 012°19'0 0.0
2019-Oct-18 12:30N 45°26' E 012°19'0 0.0
2019-Oct-18 12:00N 45°26' E 012°19'0 0.0
2019-Oct-18 11:30N 45°26' E 012°19'0 0.0
2019-Oct-18 11:00N 45°26' E 012°19'0 0.0
2019-Oct-18 10:30N 45°26' E 012°19'0 0.0
2019-Oct-18 10:00N 45°26' E 012°19'0 0.0
2019-Oct-18 09:30N 45°26' E 012°19'0 0.0
2019-Oct-18 09:00N 45°26' E 012°19'0 0.0
2019-Oct-18 08:30N 45°26' E 012°19'0 0.0
2019-Oct-18 08:00N 45°26' E 012°19'0 0.0
2019-Oct-18 07:30N 45°26' E 012°19'1 2.0
2019-Oct-18 07:00N 45°26' E 012°20'2 4.2
2019-Oct-18 06:31N 45°26' E 012°23'3 6.6
2019-Oct-18 06:01N 45°25' E 012°27'5 9.1
2019-Oct-18 05:31N 45°21' E 012°32'612.3
2019-Oct-18 05:01N 45°16' E 012°35'713.7
2019-Oct-18 04:30N 45°11' E 012°42'714.8
2019-Oct-18 04:00N 45°08' E 012°51'815.5
2019-Oct-18 03:30N 45°04' E 013°01'815.8
2019-Oct-18 03:00N 44°60' E 013°11'917.0
2019-Oct-18 02:30N 44°55' E 013°21'817.0
2019-Oct-18 02:00N 44°49' E 013°29'917.3
2019-Oct-18 01:30N 44°42' E 013°36'917.3
2019-Oct-18 01:00N 44°35' E 013°43'917.5
2019-Oct-18 00:30N 44°27' E 013°49'917.6
2019-Oct-18 00:00N 44°20' E 013°56'917.6
2019-Oct-17 23:30N 44°13' E 014°03'1117.5
2019-Oct-17 22:54N 44°05' E 014°13'1617.4
2019-Oct-17 22:00N 43°55' E 014°30'  
2019-Oct-15 12:24N 35°34' E 024°14'8 1.0
2019-Oct-15 03:29N 35°29' E 024°05'8 7.8
2019-Oct-15 02:27N 35°31' E 024°14'6 7.2
2019-Oct-15 01:36N 35°35' E 024°20'1 7.2
2019-Oct-15 01:30N 35°36' E 024°20'4 7.4
2019-Oct-15 01:00N 35°38' E 024°23'6 8.2
2019-Oct-15 00:16N 35°43' E 024°29'2 9.1
2019-Oct-15 00:00N 35°45' E 024°30'  
2019-Oct-11 22:40N 44°03' E 013°30'317.5
2019-Oct-11 22:30N 44°05' E 013°27'1717.2
2019-Oct-11 21:31N 44°17' E 013°11'017.2
2019-Oct-11 21:30N 44°17' E 013°11'917.7
2019-Oct-11 21:00N 44°25' E 013°06'917.8
2019-Oct-11 20:30N 44°34' E 013°02'917.6
2019-Oct-11 20:00N 44°42' E 012°58'917.2
2019-Oct-11 19:30N 44°50' E 012°54'917.3
2019-Oct-11 19:01N 44°58' E 012°48'917.2
2019-Oct-11 18:31N 45°05' E 012°43'816.8
2019-Oct-11 18:00N 45°10' E 012°33'816.3
2019-Oct-11 17:30N 45°18' E 012°30'714.1
2019-Oct-11 17:00N 45°25' E 012°27'3 6.5
2019-Oct-11 16:30N 45°25' E 012°22'2 4.7
2019-Oct-11 16:00N 45°26' E 012°19'0 0.9
2019-Oct-11 15:30N 45°26' E 012°19'0 0.0
2019-Oct-11 15:00N 45°26' E 012°19'0 0.0
2019-Oct-11 14:30N 45°26' E 012°19'0 0.0
2019-Oct-11 14:00N 45°26' E 012°19'0 0.0
2019-Oct-11 13:30N 45°26' E 012°19'0 0.0
2019-Oct-11 13:00N 45°26' E 012°19'0 0.0
2019-Oct-11 12:30N 45°26' E 012°19'0 0.0
2019-Oct-11 12:00N 45°26' E 012°19'0 0.0
2019-Oct-11 11:30N 45°26' E 012°19'0 0.0
2019-Oct-11 11:00N 45°26' E 012°19'0 0.0
2019-Oct-11 10:30N 45°26' E 012°19'0 0.0
2019-Oct-11 10:00N 45°26' E 012°19'0 0.0
2019-Oct-11 09:30N 45°26' E 012°19'0 0.0
2019-Oct-11 09:00N 45°26' E 012°19'0 0.0
2019-Oct-11 08:30N 45°26' E 012°19'0 0.0
2019-Oct-11 08:00N 45°26' E 012°19'0 0.8
2019-Oct-11 07:30N 45°26' E 012°19'2 4.6
2019-Oct-11 07:01N 45°25' E 012°22'3 6.4
2019-Oct-11 06:31N 45°25' E 012°27'5 9.3
2019-Oct-11 06:01N 45°22' E 012°32'5 9.3
2019-Oct-11 05:30N 45°17' E 012°32'510.1
2019-Oct-11 05:00N 45°14' E 012°38'713.9
2019-Oct-11 04:30N 45°10' E 012°46'815.9
2019-Oct-11 04:00N 45°06' E 012°55'816.6
2019-Oct-11 03:30N 45°02' E 013°06'816.5
2019-Oct-11 03:00N 44°58' E 013°16'816.9
2019-Oct-11 02:30N 44°53' E 013°26'917.3
2019-Oct-11 02:00N 44°46' E 013°32'917.5
2019-Oct-11 01:30N 44°38' E 013°38'917.6
2019-Oct-11 01:00N 44°31' E 013°45'917.3
2019-Oct-11 00:30N 44°23' E 013°52'1117.1
2019-Oct-10 23:52N 44°15' E 014°01'  
Track history (hours):
 
Tides and Currents Weather Stations Pressure Air Temp Water Temp Dewpoint Dewpoint Depression Visibility Wind Speed Wind Dir Waves Ship Positions

MSC Lirica

Operator: Mediterranean Shipping Company

Last reported at 2019-Oct-18 23:52 UTC. Time now 2019-Oct-19 00:36 UTC.
Position N 43°44' E 014°05'.

Length 275 m; draft 6.8 m.

Type: Passenger vessel. MMSI: 356042000.

Date/timePositionNaut miles runAvg speedWind from/ knotsBaromVisibWave heightAir tempDewpointWater temp
2019-Oct-18 23:52N 43°44' E 014°05'1217.3
2019-Oct-18 23:11N 43°51' E 013°51'417.1
2019-Oct-18 22:55N 43°54' E 013°47'717.1
2019-Oct-18 22:30N 43°58' E 013°39'917.3
2019-Oct-18 22:00N 44°03' E 013°29'1017.2
2019-Oct-18 21:24N 44°09' E 013°17'616.7
2019-Oct-18 21:01N 44°14' E 013°12'917.4
2019-Oct-18 20:30N 44°23' E 013°08'816.9
2019-Oct-18 20:00N 44°31' E 013°04'917.0
2019-Oct-18 19:30N 44°39' E 013°00'917.2
2019-Oct-18 19:00N 44°47' E 012°56'917.1
2019-Oct-18 18:30N 44°54' E 012°50'917.1
2019-Oct-18 18:00N 45°02' E 012°45'816.5
2019-Oct-18 17:30N 45°08' E 012°38'816.2
2019-Oct-18 17:01N 45°14' E 012°30'816.4
2019-Oct-18 16:31N 45°22' E 012°30'611.4
2019-Oct-18 16:00N 45°26' E 012°24'2 4.6
2019-Oct-18 15:30N 45°26' E 012°20'1 2.5
2019-Oct-18 15:00N 45°26' E 012°19'0 0.0
2019-Oct-18 14:30N 45°26' E 012°19'0 0.0
2019-Oct-18 14:00N 45°26' E 012°19'0 0.0
2019-Oct-18 13:30N 45°26' E 012°19'0 0.0
2019-Oct-18 13:00N 45°26' E 012°19'0 0.0
2019-Oct-18 12:30N 45°26' E 012°19'0 0.0
2019-Oct-18 12:00N 45°26' E 012°19'0 0.0
2019-Oct-18 11:30N 45°26' E 012°19'0 0.0
2019-Oct-18 11:00N 45°26' E 012°19'0 0.0
2019-Oct-18 10:30N 45°26' E 012°19'0 0.0
2019-Oct-18 10:00N 45°26' E 012°19'0 0.0
2019-Oct-18 09:30N 45°26' E 012°19'0 0.0
2019-Oct-18 09:00N 45°26' E 012°19'0 0.0
2019-Oct-18 08:30N 45°26' E 012°19'0 0.0
2019-Oct-18 08:00N 45°26' E 012°19'0 0.0
2019-Oct-18 07:30N 45°26' E 012°19'1 2.0
2019-Oct-18 07:00N 45°26' E 012°20'2 4.2
2019-Oct-18 06:31N 45°26' E 012°23'3 6.6
2019-Oct-18 06:01N 45°25' E 012°27'5 9.1
2019-Oct-18 05:31N 45°21' E 012°32'612.3
2019-Oct-18 05:01N 45°16' E 012°35'713.7
2019-Oct-18 04:30N 45°11' E 012°42'714.8
2019-Oct-18 04:00N 45°08' E 012°51'815.5
2019-Oct-18 03:30N 45°04' E 013°01'815.8
2019-Oct-18 03:00N 44°60' E 013°11'917.0
2019-Oct-18 02:30N 44°55' E 013°21'817.0
2019-Oct-18 02:00N 44°49' E 013°29'917.3
2019-Oct-18 01:30N 44°42' E 013°36'917.3
2019-Oct-18 01:00N 44°35' E 013°43'917.5
2019-Oct-18 00:30N 44°27' E 013°49'917.6
2019-Oct-18 00:00N 44°20' E 013°56'917.6
2019-Oct-17 23:30N 44°13' E 014°03'1117.5
2019-Oct-17 22:54N 44°05' E 014°13'1617.4
2019-Oct-17 22:00N 43°55' E 014°30'  
2019-Oct-15 12:24N 35°34' E 024°14'8 1.0
2019-Oct-15 03:29N 35°29' E 024°05'8 7.8
2019-Oct-15 02:27N 35°31' E 024°14'6 7.2
2019-Oct-15 01:36N 35°35' E 024°20'1 7.2
2019-Oct-15 01:30N 35°36' E 024°20'4 7.4
2019-Oct-15 01:00N 35°38' E 024°23'6 8.2
2019-Oct-15 00:16N 35°43' E 024°29'2 9.1
2019-Oct-15 00:00N 35°45' E 024°30'  
2019-Oct-11 22:40N 44°03' E 013°30'317.5
2019-Oct-11 22:30N 44°05' E 013°27'1717.2
2019-Oct-11 21:31N 44°17' E 013°11'017.2
2019-Oct-11 21:30N 44°17' E 013°11'917.7
2019-Oct-11 21:00N 44°25' E 013°06'917.8
2019-Oct-11 20:30N 44°34' E 013°02'917.6
2019-Oct-11 20:00N 44°42' E 012°58'917.2
2019-Oct-11 19:30N 44°50' E 012°54'917.3
2019-Oct-11 19:01N 44°58' E 012°48'917.2
2019-Oct-11 18:31N 45°05' E 012°43'816.8
2019-Oct-11 18:00N 45°10' E 012°33'816.3
2019-Oct-11 17:30N 45°18' E 012°30'714.1
2019-Oct-11 17:00N 45°25' E 012°27'3 6.5
2019-Oct-11 16:30N 45°25' E 012°22'2 4.7
2019-Oct-11 16:00N 45°26' E 012°19'0 0.9
2019-Oct-11 15:30N 45°26' E 012°19'0 0.0
2019-Oct-11 15:00N 45°26' E 012°19'0 0.0
2019-Oct-11 14:30N 45°26' E 012°19'0 0.0
2019-Oct-11 14:00N 45°26' E 012°19'0 0.0
2019-Oct-11 13:30N 45°26' E 012°19'0 0.0
2019-Oct-11 13:00N 45°26' E 012°19'0 0.0
2019-Oct-11 12:30N 45°26' E 012°19'0 0.0
2019-Oct-11 12:00N 45°26' E 012°19'0 0.0
2019-Oct-11 11:30N 45°26' E 012°19'0 0.0
2019-Oct-11 11:00N 45°26' E 012°19'0 0.0
2019-Oct-11 10:30N 45°26' E 012°19'0 0.0
2019-Oct-11 10:00N 45°26' E 012°19'0 0.0
2019-Oct-11 09:30N 45°26' E 012°19'0 0.0
2019-Oct-11 09:00N 45°26' E 012°19'0 0.0
2019-Oct-11 08:30N 45°26' E 012°19'0 0.0
2019-Oct-11 08:00N 45°26' E 012°19'0 0.8
2019-Oct-11 07:30N 45°26' E 012°19'2 4.6
2019-Oct-11 07:01N 45°25' E 012°22'3 6.4
2019-Oct-11 06:31N 45°25' E 012°27'5 9.3
2019-Oct-11 06:01N 45°22' E 012°32'5 9.3
2019-Oct-11 05:30N 45°17' E 012°32'510.1
2019-Oct-11 05:00N 45°14' E 012°38'713.9
2019-Oct-11 04:30N 45°10' E 012°46'815.9
2019-Oct-11 04:00N 45°06' E 012°55'816.6
2019-Oct-11 03:30N 45°02' E 013°06'816.5
2019-Oct-11 03:00N 44°58' E 013°16'816.9
2019-Oct-11 02:30N 44°53' E 013°26'917.3
2019-Oct-11 02:00N 44°46' E 013°32'917.5
2019-Oct-11 01:30N 44°38' E 013°38'917.6
2019-Oct-11 01:00N 44°31' E 013°45'917.3
2019-Oct-11 00:30N 44°23' E 013°52'1117.1
2019-Oct-10 23:52N 44°15' E 014°01'  

Dump ship's entire track history